DW4465 Weather Reports


Display with metric or nautical units.
time (UTC)temp
F
wind
direction
speed
MPH
gust
MPH
rain 1hr
in
rain 24hr
in
rain mn
in
humidity
%
barometer
mb
20260508011538 73 334 2.0 4.0 0.00 0.00 0.00 62 1013.7
20260508010048 74 0 1.0 4.0 0.00 0.00 0.00 61 1013.7
20260508004548 75 230 1.0 5.0 0.00 0.00 0.00 59 1013.6
20260508003051 76 320 1.0 6.0 0.00 0.00 0.00 58 1013.6
20260508001547 77 289 1.0 5.0 0.00 0.00 0.00 57 1013.6
20260508000052 77 333 1.0 4.0 0.00 0.00 0.00 57 1013.5
20260507234556 77 296 1.0 5.0 0.00 0.00 0.00 58 1013.6
20260507233111 77 250 1.0 7.0 0.00 0.00 0.00 56 1013.7
20260507231540 76 189 3.0 8.0 0.00 0.00 0.00 58 1013.6
20260507230050 75 188 4.0 9.0 0.00 0.00 0.00 58 1013.6
20260507224544 75 175 5.0 9.0 0.00 0.00 0.00 58 1013.6
20260507223056 74 143 4.0 10.0 0.00 0.00 0.00 60 1014.0
20260507221542 74 208 5.0 10.0 0.00 0.00 0.00 60 1014.0
20260507220040 74 208 4.0 10.0 0.00 0.00 0.00 61 1014.4
20260507214539 73 125 3.0 11.0 0.00 0.00 0.00 63 1014.6
20260507213045 73 227 4.0 10.0 0.00 0.00 0.00 63 1014.7
20260507211549 73 155 5.0 11.0 0.00 0.00 0.00 62 1014.9
20260507204544 72 134 6.0 10.0 0.00 0.00 0.00 64 1015.3
20260507203039 72 172 4.0 11.0 0.00 0.00 0.00 63 1015.4
20260507201545 72 109 2.0 9.0 0.00 0.00 0.00 63 1015.4
20260507200052 72 146 3.0 11.0 0.00 0.00 0.00 65 1015.7
20260507194548 72 192 3.0 9.0 0.00 0.00 0.00 65 1015.8
20260507193047 72 194 5.0 12.0 0.00 0.00 0.00 66 1015.8
20260507191547 72 148 3.0 9.0 0.00 0.00 0.00 64 1016.0
20260507190050 71 175 4.0 10.0 0.00 0.00 0.00 65 1016.1
20260507184545 72 244 3.0 12.0 0.00 0.00 0.00 65 1016.2
20260507183110 71 209 1.0 7.0 0.00 0.00 0.00 65 1016.1
20260507181551 71 221 3.0 8.0 0.00 0.00 0.00 66 1016.2
20260507180043 70 221 2.0 7.0 0.00 0.00 0.00 66 1016.2
20260507174543 70 165 3.0 8.0 0.00 0.00 0.00 66 1016.4
20260507173047 70 105 2.0 7.0 0.00 0.00 0.00 67 1016.5
20260507171538 70 188 1.0 8.0 0.00 0.00 0.00 69 1016.4
20260507170048 69 0 1.0 5.0 0.00 0.00 0.00 71 1016.3
20260507164603 68 0 2.0 5.0 0.00 0.00 0.00 73 1016.4
20260507163047 67 188 1.0 4.0 0.00 0.00 0.00 77 1016.7
20260507161551 66 217 0.0 4.0 0.00 0.00 0.00 80 1016.6
20260507160057 64 0 1.0 5.0 0.00 0.00 0.00 83 1016.8
20260507154549 63 0 1.0 5.0 0.00 0.00 0.00 85 1016.8
20260507153045 63 236 0.0 3.0 0.00 0.00 0.00 86 1016.8
20260507151546 61 176 0.0 3.0 0.00 0.00 0.00 87 1016.9
20260507150047 60 0 1.0 3.0 0.00 0.00 0.00 87 1016.9
20260507144539 59 0 0.0 2.0 0.00 0.00 0.00 87 1016.9
20260507143047 58 0 0.0 1.0 0.00 0.00 0.00 87 1016.7
20260507141544 56 0 0.0 1.0 0.00 0.00 0.00 87 1016.6
20260507140045 55 0 0.0 0.0 0.00 0.00 0.00 86 1016.6
20260507134541 54 0 0.0 0.0 0.00 0.00 0.00 86 1016.4
20260507133051 54 0 0.0 0.0 0.00 0.00 0.00 86 1016.2
20260507131540 53 0 0.0 0.0 0.00 0.00 0.00 86 1016.1
20260507130046 53 0 0.0 0.0 0.00 0.00 0.00 86 1016.0
20260507124551 54 0 0.0 0.0 0.00 0.00 0.00 85 1015.8
20260507123044 54 0 0.0 0.0 0.00 0.00 0.00 85 1015.9
20260507121538 54 0 0.0 0.0 0.00 0.00 0.00 85 1015.9
20260507120037 54 0 0.0 0.0 0.00 0.00 0.00 85 1016.0
20260507114603 54 0 0.0 0.0 0.00 0.00 0.00 85 1016.0
20260507113103 55 0 0.0 0.0 0.00 0.00 0.00 85 1016.0
20260507111545 55 0 0.0 0.0 0.00 0.00 0.00 85 1016.1
20260507110042 56 0 0.0 0.0 0.00 0.00 0.00 84 1016.2
20260507104542 56 0 0.0 0.0 0.00 0.00 0.00 84 1016.3
20260507103043 56 0 0.0 0.0 0.00 0.00 0.00 84 1016.3
20260507101547 56 0 0.0 0.0 0.00 0.00 0.00 84 1016.4
20260507100042 57 0 0.0 0.0 0.00 0.00 0.00 84 1016.3
20260507094541 57 0 0.0 0.0 0.00 0.00 0.00 84 1016.5
20260507093038 57 0 0.0 0.0 0.00 0.00 0.00 83 1016.6
20260507091544 57 0 0.0 0.0 0.00 0.00 0.00 83 1016.8
20260507090044 58 0 0.0 0.0 0.00 0.00 0.00 83 1016.9
20260507084546 58 0 0.0 0.0 0.00 0.00 0.00 82 1017.1
20260507083041 58 0 0.0 0.0 0.00 0.00 0.00 82 1017.0
20260507081553 59 0 0.0 0.0 0.00 0.00 0.00 82 1017.1
20260507080053 59 0 0.0 1.0 0.00 0.00 0.00 82 1017.2
20260507074549 59 0 0.0 2.0 0.00 0.00 0.00 81 1017.4
20260507073042 59 0 0.0 2.0 0.00 0.00 0.00 81 1017.4
20260507071539 60 0 0.0 0.0 0.00 0.00 0.00 80 1017.5
20260507070039 60 0 0.0 1.0 0.00 0.00 0.00 80 1017.5
20260507064539 60 0 0.0 2.0 0.00 0.00 0.00 80 1017.5
20260507063044 60 282 0.0 3.0 0.00 0.00 0.00 79 1017.5
20260507061542 60 0 0.0 3.0 0.00 0.00 0.00 79 1017.5
20260507060056 61 0 0.0 2.0 0.00 0.00 0.00 79 1017.7
20260507054544 61 0 0.0 3.0 0.00 0.00 0.00 78 1017.6
20260507053037 61 0 0.0 1.0 0.00 0.00 0.00 77 1017.7
20260507051544 61 0 0.0 3.0 0.00 0.00 0.00 77 1017.6
20260507050044 62 0 0.0 3.0 0.00 0.00 0.00 76 1017.5
20260507044601 62 302 1.0 4.0 0.00 0.00 0.00 75 1017.5
20260507043049 62 0 0.0 2.0 0.00 0.00 0.00 75 1017.3
20260507041554 63 0 0.0 3.0 0.00 0.00 0.00 74 1017.4
20260507040039 63 297 1.0 3.0 0.00 0.00 0.00 73 1017.3
20260507034542 63 313 1.0 4.0 0.00 0.00 0.00 72 1017.2
20260507033040 64 0 1.0 3.0 0.00 0.00 0.00 69 1017.1
20260507031548 64 329 1.0 7.0 0.00 0.00 0.00 69 1016.9
20260507030049 65 0 0.0 3.0 0.00 0.00 0.00 68 1016.7
20260507024550 65 296 0.0 4.0 0.00 0.00 0.00 68 1016.6
20260507023052 66 0 1.0 5.0 0.00 0.00 0.00 67 1016.5
20260507021541 66 327 1.0 6.0 0.00 0.00 0.00 66 1016.4
20260507020048 67 351 2.0 7.0 0.00 0.00 0.00 64 1016.4
20260507014537 68 289 1.0 6.0 0.00 0.00 0.00 63 1016.2
20260507013044 69 267 1.0 4.0 0.00 0.00 0.00 62 1016.1